Lid_Strength_Index
-2 -1 -1 -1 -1 -1 -1 -1 -1 -1 -1 -1 -1 -1 -1 -1 -0 -0 -1 -0 -1 -1 -2 -1 -2 -2 -2 -1 -1 -1 -1 -2 -2
-1 -1 -1 -1 -1 -1 -1 -1 -1 -1 -1 -1 -1 -1 -1 -0 0 -0 -0 -0 -1 -2 -2 -1 -1 -2 -1 -2 -1 -1 -1 -1 -2
-1 -1 -1 -1 -1 -1 -1 -1 -1 -1 -1 -1 -1 -1 -0 -0 -0 0 0 -1 -1 -1 -1 -1 -1 -1 -1 -1 -2 -2 -1 -1 -1
-1 -1 -1 -1 -1 -1 -1 -1 -1 -1 -1 -1 -1 -1 -0 0 -0 -0 -0 -0 -1 -1 -1 -1 -1 -1 -1 -1 -1 -1 -1 -1 -1
-2 -1 -1 -1 -1 -1 -1 -1 -1 -1 -1 -1 -1 0 0 1 0 0 -0 -1 -1 -1 -1 -1 -1 -1 -1 -1 -1 -1 -1 -1 -1
-0 -1 -1 -1 -1 -1 -1 -1 -1 -1 0 -0 -0 0 1 1 0 0 -1 -1 -1 -1 -1 -1 -1 -1 -1 -1 -1 -1 -1 -1 -1
-0 0 -1 -1 -1 -1 -1 -1 -0 1 2 2 1 1 1 1 1 0 -1 -2 -1 -1 -1 -1 -1 -1 -1 -1 -1 -1 -1 -1 -1
3 1 1 1 1 1 1 1 1 2 2 2 1 1 1 1 1 0 -1 -1 -1 -1 -1 -1 -1 -1 -1 -1 -1 -1 -1 -1 -1
4 3 2 2 2 2 2 2 2 2 2 2 1 1 1 1 1 1 -0 -1 -1 -1 -1 -1 -1 -1 -1 -1 -1 -1 -1 -1 -1
4 4 3 2 2 1 0 1 1 2 2 2 3 3 2 1 1 1 0 -1 -1 -1 -1 -1 -1 -1 -1 -1 -1 -1 -1 -1 -1
4 4 4 3 2 0 0 1 1 1 1 2 2 3 3 3 2 1 1 -1 -1 -1 -1 -1 -1 -1 -1 -1 -1 -1 -1 -1 -1
4 4 3 2 3 2 1 1 2 1 2 3 3 3 4 4 4 3 2 2 0 -1 -1 -1 -2 -1 -1 -1 -1 -1 -1 -1 -1
5 5 4 3 2 0 1 1 2 2 3 4 5 4 3 4 5 4 3 2 2 0 -1 -1 -1 -1 -1 -1 -2 -1 -1 -1 -1
8 8 7 5 3 2 1 1 3 4 5 4 4 6 5 4 4 5 4 4 2 2 1 -0 -0 -0 -1 -2 -2 -2 -2 -1 -1
12 10 10 8 6 5 3 2 2 2 3 4 5 6 6 6 6 5 3 4 3 2 2 3 2 -0 -1 -1 -2 -2 -2 -1 -1
14 13 12 11 10 10 7 4 3 3 4 4 4 5 6 7 7 7 6 5 4 3 3 3 4 3 0 -1 -1 -1 -1 -1 -1
14 14 14 13 12 12 11 10 6 4 4 5 6 8 8 8 8 8 7 7 6 6 5 5 4 4 4 3 -0 -0 -1 -2 -2
15 15 15 14 14 14 12 11 10 9 4 5 6 8 10 10 8 8 8 8 8 7 6 6 5 5 5 3 2 0 -0 -2 -2
16 15 15 15 14 14 14 11 11 10 9 6 5 5 6 8 10 9 8 8 8 8 7 7 6 6 5 4 3 2 0 -0 -2
18 17 16 16 15 15 15 13 12 11 11 10 9 6 6 6 8 8 9 9 8 8 7 7 7 7 6 6 4 2 1 -1 -1